FNLUFNCA

Guest
Details From FNLU - LUANDA 4 DE FEVEREIRO
To FNCA - CABINDA
Flight Number -
Tags generated
Created
Modified
Stats Distance 205 nm / 381 km
Max Altitude 26,600 ft / 8,108 m
Waypoints 5
Social Downloads 0
Likes 0
Share VATSIM

Download

Looking for another format? Having issues loading an existing format? Contact us
Advertisement - Login to hide

Notes

Basic altitude profile: - Ascent Rate: 2000ft/min - Ascent Speed: 250kts - Cruise Altitude: 20000ft - Cruise Speed: 360kts - Descent Rate: 1500ft/min - Descent Speed: 250kts Options: - Use NATs: yes - Use PACOTS: yes - Use low airways: yes - Use high airways: yes

Route

FNLU IMLEX UR987F AVUTA R987F SO FNCA

ID Type Via Altitude Latitude Longitude Leg Dist Tot Dist Heading (true) Name
O FNLU APT - 0 ft / 0 m -8.85838˚ 13.23118˚ - 0 nm - LUANDA 4 DE FEVEREIRO
IMLEX FIX - 26,600 ft / 8,108 m -7.56500˚ 12.83333˚ 81 nm 81 nm 343° / 343° -
AVUTA FIX UR987F (AWY-HI) 24,500 ft / 7,468 m -6.93167˚ 12.62667˚ 39 nm 121 nm 342° / 342° -
SO NDB R987F (AWY-LO) 7,200 ft / 2,195 m -6.13333˚ 12.36667˚ 50 nm 171 nm 342° / 342° SOYO NDB
O FNCA APT - 0 ft / 0 m -5.59699˚ 12.18835˚ 33 nm 205 nm 342° / 342° CABINDA

Altitude Profile

Advertisement - Login to hide

Weather


0- 5 10 15 20 25 30 35+ Temperature / ° C

Clouds and Precipitation
Forecast for 2017-12-18 12:00 UTC. Updated 6 minutes ago

Ground ~20,000 ft ~40,000 ft Winds

FNLU

Details ICAO FNLU (LAD)
Name LUANDA 4 DE FEVEREIRO
Region Angola
Timezone Africa/Luanda (UTC+1.0)
Stats Elevation 243 ft / 74 m (AMSL)
Location -8.858377° 13.231178°
Runways 2
Magnetic Variation 3.481° W

METAR

FNLU 180800Z 15006KT 9999 SCT020 BKN024 28/22 Q1012 NOSIG

Decode

TAF

TAF FNLU 180500Z 1806/1912 16006KT 8000 FEW020 BKN023 BECMG 1809/1812 29010KT 9999 SCT023 TEMPO 1815/1820 23005KT FEW023

Decode

Departure Runways

ID Width Length Bearing (true) Bearing (mag) Surface Threshold Offset Overrun Length
05 148 ft / 45 m 12,153 ft / 3,704 m 46.63° 50.11° Asphalt 0 ft / 0 m 0 ft / 0 m
07 197 ft / 60 m 8,176 ft / 2,492 m 67.40° 70.88° Asphalt 0 ft / 0 m 176 ft / 54 m
23 148 ft / 45 m 12,153 ft / 3,704 m 226.62° 230.10° Asphalt 500 ft / 152 m 0 ft / 0 m
25 197 ft / 60 m 8,176 ft / 2,492 m 247.40° 250.88° Asphalt 0 ft / 0 m 0 ft / 0 m

FNCA

Details ICAO FNCA (CAB)
Name CABINDA
Region Angola
Timezone Africa/Luanda (UTC+1.0)
Stats Elevation 66 ft / 20 m (AMSL)
Location -5.596992° 12.188351°
Runways 1
Magnetic Variation 2.688° W

METAR

FNCA 180800Z 25005KT 9999 FEW010 BKN023 26/25 Q1012

Decode

TAF

Not found

Destination Runways

ID Width Length Bearing (true) Bearing (mag) Surface Threshold Offset Overrun Length
01 98 ft / 30 m 8,248 ft / 2,514 m 359.08° 1.77° Asphalt 0 ft / 0 m 95 ft / 29 m
19 98 ft / 30 m 8,248 ft / 2,514 m 179.08° 181.77° Asphalt 0 ft / 0 m 135 ft / 41 m

Popular Alternatives